Theta_e
340 338 333 332 337 339 338 339 338 338 337 337 334 334 334 332 330 331 328 327 328 328 327 327 328 327 327 329 330 330 330 331 330 329 329 327 324 320 315 316 318 320 323 324 325 327 327 326 326 327 327 327 327 326 326 327 327 327 325 324 324 323 323 323 325 326 325 326 328 329 329 328 328 328 327 326 326 326 326 326 326 326 326 326 326
339 338 334 333 337 338 338 338 338 337 337 336 334 334 333 332 329 327 325 325 325 325 327 328 327 325 326 330 330 329 330 330 329 329 328 326 325 322 318 318 317 318 320 322 325 326 326 326 325 326 326 327 328 328 327 327 327 327 327 325 324 325 325 324 326 326 325 326 327 327 328 329 328 327 326 325 326 327 325 325 327 326 325 325 326
339 337 335 335 336 337 337 337 337 337 337 335 333 333 333 333 329 325 324 324 322 323 327 327 325 325 327 328 328 328 329 330 329 329 327 325 324 322 320 319 319 321 321 320 323 323 323 324 325 325 325 326 327 327 327 328 327 328 328 327 326 326 326 326 326 326 326 326 326 326 328 328 328 328 326 324 325 327 326 326 327 325 324 325 327
338 337 336 337 337 337 336 336 336 336 335 334 332 333 335 335 331 326 324 322 322 323 325 327 327 328 327 326 327 328 330 329 326 323 320 320 319 320 322 324 324 325 324 322 321 319 320 321 323 324 325 325 326 326 327 327 327 327 327 327 327 327 326 326 326 325 326 326 326 326 326 327 328 328 327 325 324 326 326 326 326 325 324 325 326
337 337 337 338 337 336 335 335 335 335 335 333 332 332 334 334 332 328 324 322 323 322 324 329 329 328 327 327 327 328 330 327 321 321 321 320 318 320 323 324 326 326 325 325 319 315 317 319 321 323 324 326 326 326 327 326 326 326 326 326 327 327 327 326 326 325 326 326 326 326 325 326 329 328 326 326 325 325 326 326 326 326 325 325 325
337 337 337 337 336 335 335 335 334 334 334 332 331 332 332 334 333 329 325 325 325 324 328 329 326 327 328 327 327 329 328 322 318 322 324 323 320 321 324 324 325 325 324 323 315 313 319 321 321 322 323 325 326 327 327 327 327 326 325 326 326 326 327 327 326 326 326 326 326 327 325 326 328 328 326 326 327 325 326 327 327 326 326 326 325
336 337 336 335 334 334 335 334 334 333 333 331 331 330 330 333 331 328 328 328 328 328 328 326 323 326 328 328 329 328 323 318 319 322 324 323 321 322 325 324 324 322 319 317 314 316 322 324 324 324 322 322 324 327 327 326 327 326 326 325 324 325 325 326 325 325 326 326 326 326 326 325 326 327 327 326 326 326 326 326 327 327 326 325 324
336 335 333 332 331 334 334 334 334 332 331 330 329 328 329 331 329 325 327 328 327 326 326 324 323 327 329 327 325 320 317 319 322 323 324 323 322 322 323 322 324 323 320 319 318 318 322 325 325 324 323 322 322 324 325 325 324 324 325 324 323 324 325 325 324 325 326 325 326 326 326 326 326 326 327 326 326 326 325 325 326 326 325 324 323
336 333 330 329 330 334 334 333 333 331 330 329 327 327 328 329 326 323 325 325 325 324 324 324 322 322 322 320 319 320 323 323 322 323 324 322 321 323 323 323 325 325 323 323 323 321 321 324 325 324 324 324 323 321 321 323 322 321 323 324 323 324 325 324 324 325 325 325 325 325 325 326 326 327 326 326 325 325 325 325 325 325 324 324 323
333 331 328 327 329 332 332 330 331 329 330 330 327 327 327 326 324 322 322 324 323 323 322 320 316 314 314 315 319 323 326 325 321 322 321 320 323 325 325 324 324 325 324 324 324 323 321 323 324 323 323 324 323 319 319 322 322 322 323 323 323 323 324 324 325 325 325 324 325 325 325 325 326 327 326 325 325 325 325 324 324 324 323 323 322
332 330 328 327 328 331 330 329 329 328 329 328 327 326 323 322 323 321 321 322 321 321 320 316 313 312 314 316 318 320 323 323 319 316 317 321 325 326 325 323 322 322 324 324 324 323 322 321 322 323 323 323 322 319 319 321 321 321 322 322 322 322 324 325 325 325 324 324 325 325 325 325 325 326 326 325 325 324 323 323 323 321 320 320 320
333 330 329 327 328 331 330 329 329 329 330 328 327 326 323 322 321 320 320 322 321 320 319 315 314 314 316 316 316 316 318 318 313 310 312 319 322 322 321 320 321 322 322 323 324 323 322 320 320 323 323 322 322 319 318 320 321 320 320 321 321 322 324 325 324 324 323 323 324 324 324 324 324 325 325 324 323 323 322 322 321 320 319 319 319
330 328 328 328 328 330 330 329 328 329 329 327 326 326 324 323 321 320 320 321 320 319 319 317 316 316 316 317 317 316 316 313 309 308 309 313 317 319 320 320 321 319 316 319 323 323 322 319 319 322 322 320 319 318 316 318 320 319 318 319 321 323 323 323 322 322 321 322 322 322 322 323 324 323 323 323 322 321 321 321 320 320 320 320 319
329 327 329 328 327 328 328 328 328 327 327 326 326 325 324 324 322 320 319 320 320 319 319 318 318 317 315 317 318 317 315 311 308 309 307 311 318 322 321 320 319 317 313 314 318 319 317 314 314 318 320 319 317 317 316 316 316 315 314 315 318 321 323 321 321 321 320 321 320 319 319 322 323 323 322 322 322 321 320 320 320 320 320 320 320
329 328 328 327 327 326 326 326 328 329 328 328 327 325 325 325 323 320 319 319 319 320 319 319 319 318 316 318 320 317 313 309 307 309 310 314 319 321 321 321 320 320 315 311 313 315 312 309 308 311 317 318 316 317 315 313 311 310 310 309 311 317 321 320 318 318 318 319 319 317 318 320 322 323 322 322 322 321 320 319 319 320 320 319 320
331 329 328 327 326 326 325 327 329 330 330 329 328 326 325 324 323 321 320 319 320 319 319 319 319 317 316 319 321 317 312 309 308 311 314 316 318 319 322 323 322 321 316 310 310 310 309 307 306 308 312 315 316 316 312 308 307 306 306 306 306 311 317 317 315 315 315 316 317 316 317 318 321 322 322 321 321 320 320 319 318 318 318 317 317
331 330 329 328 327 327 328 329 329 330 331 331 328 325 324 324 322 321 320 320 319 319 319 319 318 316 318 321 321 316 311 308 308 312 316 318 317 320 324 323 322 322 317 311 308 307 306 306 306 306 308 310 311 311 308 306 306 305 305 305 305 307 310 312 312 312 312 312 314 316 317 318 320 321 319 318 318 317 318 319 318 318 316 315 315
332 331 330 330 329 329 330 329 327 328 330 331 329 326 325 325 323 321 321 320 320 320 319 318 318 318 321 323 318 312 308 309 311 313 317 318 318 321 323 321 320 320 316 310 307 307 307 306 306 306 307 306 306 306 306 305 305 305 304 305 305 305 307 308 309 309 308 308 309 311 314 316 319 320 318 317 316 315 316 318 318 317 315 314 313
331 331 331 331 330 330 329 327 326 326 327 329 328 327 325 325 324 321 320 320 321 321 320 319 320 322 325 323 316 310 308 311 315 316 317 318 319 322 322 319 317 317 314 309 306 307 306 305 305 307 307 306 305 304 304 304 305 305 306 307 308 308 308 309 309 308 308 308 307 307 307 310 315 317 316 315 313 313 314 316 317 316 314 313 313
328 329 330 330 330 330 329 326 326 325 326 327 327 326 325 325 324 323 322 322 322 321 321 322 324 324 325 322 316 311 311 313 316 317 316 317 320 322 320 316 315 315 312 307 306 306 305 304 305 305 306 305 305 306 306 306 307 308 308 309 310 310 310 311 311 310 309 310 310 309 307 308 311 314 313 313 312 312 313 315 317 316 314 313 314
327 327 327 328 328 328 328 328 328 327 327 327 326 326 325 324 324 324 325 325 323 322 323 326 326 323 322 322 319 315 314 315 317 316 314 315 317 319 317 313 313 313 309 306 306 305 304 304 304 305 306 305 306 308 308 308 309 309 310 311 311 310 310 311 311 310 310 310 310 310 311 312 313 313 313 313 313 313 313 314 316 316 315 314 315
326 326 327 327 328 328 328 329 328 328 329 328 327 328 327 326 325 326 328 328 326 325 326 328 327 323 322 323 322 319 317 317 317 315 312 312 314 314 313 311 312 311 307 305 306 306 306 305 305 305 306 307 308 309 309 309 309 310 311 312 311 310 310 310 310 310 310 310 309 310 311 313 314 314 314 314 314 314 314 314 315 315 315 314 315
327 327 326 326 327 327 328 328 328 329 329 328 328 328 329 328 327 328 329 329 327 327 327 327 326 323 322 323 323 323 321 320 319 315 311 312 312 311 310 310 311 310 306 306 307 308 308 308 307 307 307 307 309 309 309 309 309 309 310 311 311 310 310 309 310 312 313 312 312 310 309 310 312 314 315 315 314 314 314 314 315 315 314 315 315
327 327 327 327 327 327 327 328 328 329 328 328 327 328 328 328 328 328 328 327 327 327 326 326 326 325 324 324 325 325 324 322 320 316 312 311 311 309 309 309 310 308 306 309 312 309 309 311 311 310 310 308 309 309 309 309 309 308 309 309 310 310 311 311 313 315 316 316 316 315 312 310 310 313 315 315 315 315 314 314 315 315 315 315 314
326 327 327 327 327 326 326 327 328 328 328 328 327 327 327 327 327 327 326 326 327 326 325 324 325 326 326 326 326 326 324 322 321 318 314 312 310 309 310 310 310 309 308 314 317 312 309 313 315 314 313 311 309 309 309 309 309 309 309 310 311 313 314 315 316 317 316 317 317 317 316 314 312 312 313 314 315 315 314 315 315 315 315 315 314
325 326 325 325 325 325 325 326 326 326 326 327 326 327 326 326 327 327 326 327 326 325 325 324 324 325 325 326 326 324 323 322 321 320 318 315 312 309 309 310 311 310 310 315 319 315 312 315 317 317 317 314 311 310 310 310 310 311 311 312 314 316 317 317 317 318 318 318 317 317 317 317 315 314 313 313 314 315 314 315 315 315 315 315 315
324 325 324 324 324 324 324 325 324 324 325 326 325 325 325 324 325 325 324 324 324 323 323 324 324 324 324 325 325 323 321 321 322 322 319 318 315 311 309 309 312 312 312 315 318 317 314 314 317 317 317 316 314 313 314 314 315 316 316 317 318 318 318 317 317 318 318 318 317 317 318 318 316 317 316 314 314 315 315 315 314 315 315 315 315
323 323 323 323 323 323 323 324 323 323 325 325 324 324 324 324 323 323 323 323 322 321 321 323 324 323 323 324 324 322 320 319 322 322 320 320 318 314 312 313 315 316 314 316 319 319 316 315 316 317 316 317 317 316 317 318 318 319 319 320 320 319 318 318 317 318 318 317 316 317 318 318 316 316 317 316 315 315 315 315 314 314 314 313 314
317 319 321 321 321 321 322 323 322 322 322 322 322 322 323 324 324 323 323 323 322 321 321 323 324 322 321 322 322 321 319 319 322 323 321 321 320 317 315 317 319 319 318 318 319 318 317 316 317 317 317 317 317 317 318 318 318 319 319 321 320 319 319 319 318 318 318 317 317 317 317 318 317 317 316 316 316 316 316 315 314 314 314 314 314
310 312 315 316 316 318 320 321 321 322 322 322 322 322 322 323 323 323 322 322 322 322 322 324 325 323 322 322 321 320 320 320 322 323 322 322 321 319 318 317 319 320 319 318 318 318 317 316 317 317 318 317 318 317 318 318 318 318 319 320 320 319 319 320 319 318 317 316 316 316 316 317 318 318 317 317 317 317 317 316 315 315 315 315 315
307 308 309 310 311 313 316 317 317 318 319 320 321 321 321 322 322 322 322 322 322 322 321 321 322 322 322 322 321 321 322 321 320 321 322 322 321 319 318 317 317 319 319 319 319 318 318 318 317 317 317 317 318 318 318 318 318 318 318 319 319 319 318 319 318 317 316 316 316 316 316 316 318 319 318 317 318 318 317 317 316 316 316 316 315
307 307 308 308 309 310 311 311 312 312 313 314 314 316 318 320 321 320 321 321 321 321 321 320 320 320 320 320 319 320 322 321 319 319 320 321 321 320 320 318 317 317 317 317 318 319 319 319 318 318 317 317 317 317 317 318 318 318 319 318 318 318 319 319 317 316 316 317 316 316 316 316 317 318 317 317 318 318 317 317 317 316 316 316 316
307 307 307 308 308 308 308 309 309 309 309 310 311 312 314 317 319 319 318 318 317 318 318 318 319 320 320 320 320 321 322 321 320 320 320 321 322 322 322 321 319 318 318 318 319 319 319 319 318 318 318 318 318 318 318 318 318 319 319 318 318 318 318 317 317 316 316 316 316 316 316 316 316 317 317 318 318 318 318 317 317 316 316 316 316
307 307 308 308 308 308 308 308 309 309 309 310 310 311 311 313 314 314 313 312 313 314 313 313 315 316 316 317 318 319 320 320 321 321 320 321 322 323 323 323 322 321 321 320 320 320 320 320 319 319 319 318 318 318 318 318 318 319 320 319 318 317 316 316 316 316 316 316 316 317 316 316 316 316 316 318 318 317 316 317 317 317 317 316 316
306 307 307 308 309 309 309 309 309 309 309 310 309 310 310 311 311 311 311 311 312 312 312 312 312 312 313 313 314 315 316 318 318 318 318 318 319 320 320 320 321 320 320 319 319 319 319 319 319 319 319 319 319 318 318 318 318 319 319 319 318 317 317 316 316 316 317 317 316 316 315 316 316 316 316 317 316 314 313 314 316 316 316 315 315
307 307 308 308 309 309 309 309 309 309 310 310 309 309 310 310 310 310 310 311 312 312 312 312 312 312 312 312 313 313 314 314 315 315 315 317 318 318 317 317 317 317 317 316 316 315 316 316 317 317 318 318 317 317 317 317 317 318 318 318 317 317 317 317 317 316 316 316 316 316 316 316 316 316 315 315 314 312 311 310 311 311 310 310 310
306 306 306 306 306 306 307 308 309 309 309 309 309 309 310 310 310 310 311 312 312 313 313 312 312 312 312 312 312 312 313 313 313 313 314 315 316 317 317 317 316 315 315 315 314 313 313 313 314 314 315 316 316 316 316 316 317 318 318 318 318 318 318 318 317 316 315 315 315 315 316 316 315 315 315 314 312 311 310 307 306 305 304 304 306
304 305 306 306 306 306 306 307 308 308 308 309 309 309 309 309 309 309 310 310 311 311 311 311 311 311 310 310 311 311 312 312 313 313 313 313 313 314 314 314 314 314 315 315 315 314 314 313 313 313 313 314 314 315 315 314 315 316 317 318 318 317 317 317 316 315 315 315 315 315 315 315 315 314 314 313 311 310 308 305 303 303 303 303 304
303 303 304 305 305 306 306 306 307 307 307 308 308 309 309 309 309 309 309 309 310 310 310 310 310 310 309 308 308 308 309 310 310 310 311 312 313 313 313 313 313 313 314 314 315 315 315 314 313 313 313 313 313 312 311 311 312 314 315 316 316 316 317 316 315 315 315 315 314 314 314 314 314 314 314 313 311 309 306 304 303 303 303 303 304
301 301 302 302 302 302 302 303 304 304 304 305 305 305 306 305 305 306 305 305 306 306 307 306 306 306 306 305 304 304 305 306 307 308 308 309 309 310 311 312 312 313 313 314 314 314 315 314 314 314 313 312 312 312 311 311 311 313 314 313 314 316 316 315 314 315 315 314 313 313 314 314 313 314 315 314 310 307 304 303 303 303 303 303 305
300 301 301 301 300 299 299 299 299 299 299 300 300 301 300 299 299 300 300 300 301 301 301 301 300 300 300 300 300 301 301 303 304 305 305 305 305 304 305 306 308 309 311 313 314 313 313 313 314 314 313 313 312 311 311 311 311 312 313 313 315 316 316 314 314 315 314 314 313 313 314 314 314 314 313 311 307 304 303 303 303 303 303 304 305
299 300 301 301 301 300 298 298 298 297 297 297 297 297 297 297 297 297 297 298 298 298 298 298 297 297 297 297 298 298 298 299 300 301 301 301 300 300 301 303 303 304 306 309 312 313 313 313 313 313 313 313 312 311 311 310 310 311 312 313 315 316 315 314 315 315 314 314 313 312 311 311 312 312 309 305 304 303 303 304 305 305 306 307 308
299 300 301 301 301 300 299 299 299 298 298 298 298 298 298 298 299 299 298 298 298 298 298 298 298 298 298 298 298 298 298 297 297 298 299 299 299 300 300 302 302 303 303 305 307 309 311 312 312 312 312 312 312 312 312 311 310 309 310 311 313 314 314 314 314 314 314 314 313 311 308 306 307 307 304 303 303 303 303 305 307 308 309 310 310
298 298 299 300 300 300 300 300 299 299 299 299 299 299 299 300 300 299 299 299 299 299 299 299 299 299 299 299 299 299 299 299 298 298 298 299 300 301 302 302 303 304 304 305 305 306 307 310 311 311 311 311 312 313 313 312 310 309 309 310 310 311 312 312 313 314 314 314 313 311 308 306 306 305 304 304 304 303 303 305 307 309 310 310 309
298 298 299 300 300 300 300 299 299 300 299 299 299 299 299 299 299 299 299 299 299 299 299 299 299 299 299 299 299 299 299 299 299 299 299 299 299 300 301 302 302 303 303 304 304 305 305 306 308 309 310 310 311 312 312 312 311 309 308 309 309 310 311 311 312 313 313 313 313 311 308 307 306 305 304 304 304 303 301 302 305 308 309 309 308
299 299 299 300 300 299 299 299 299 299 299 299 299 299 299 299 299 299 299 299 298 299 299 298 298 298 298 298 298 298 299 299 299 299 299 299 299 300 300 300 301 302 302 302 303 303 303 303 304 306 308 309 310 310 310 312 311 310 309 308 309 311 312 311 311 312 312 312 313 312 309 308 307 306 305 304 303 302 301 301 303 305 306 306 305
299 299 300 299 299 299 299 299 299 298 298 299 299 299 298 298 298 298 298 298 298 298 298 298 298 298 297 297 297 298 298 298 298 299 299 299 299 300 300 300 300 301 301 301 302 303 303 303 303 305 307 308 309 309 310 310 311 310 310 309 307 308 311 312 312 312 311 311 312 312 310 308 308 307 305 304 302 301 301 301 302 302 302 302 302
299 299 299 299 299 299 299 299 298 298 299 299 299 299 298 297 297 297 296 296 297 297 297 297 297 297 297 297 297 297 297 297 298 298 298 299 299 299 299 300 300 300 300 300 301 301 302 302 302 303 305 307 308 309 309 309 309 309 310 308 303 303 306 309 310 311 311 310 310 311 310 309 308 307 305 303 302 302 302 302 302 301 301 301 300
299 299 299 299 298 298 298 298 298 298 299 299 298 298 297 297 297 297 297 296 296 296 296 296 296 296 296 297 296 296 296 296 296 296 297 297 297 298 298 299 299 299 299 299 299 300 300 301 301 301 303 304 306 307 308 309 309 308 308 307 303 301 303 305 306 307 308 308 309 310 309 309 308 307 304 303 302 303 303 302 302 301 300 299 299
299 299 299 298 298 298 298 298 298 298 298 298 298 297 297 297 297 297 297 296 296 296 295 295 295 296 296 296 295 295 295 295 295 295 295 296 296 296 296 297 297 298 299 299 299 299 299 300 300 300 301 302 303 304 305 307 308 308 308 308 305 303 303 304 305 306 306 308 309 309 308 307 307 306 304 303 303 303 302 301 300 300 299 299 298
299 299 299 298 298 298 298 298 298 298 298 297 298 298 297 297 297 297 296 296 295 295 295 295 295 295 295 295 295 295 295 295 295 295 295 295 295 295 296 295 295 296 297 298 299 299 299 299 300 300 300 301 301 301 302 304 307 307 307 307 306 304 303 303 305 306 307 307 308 307 306 305 305 305 304 304 303 303 302 300 300 299 298 298 298
Wind_Speed
30 28 23 21 22 21 21 22 24 26 27 24 22 24 24 27 29 28 27 24 21 20 19 19 20 19 19 17 15 14 13 12 10 8 7 5 5 6 6 6 5 5 5 4 5 5 4 3 3 3 3 4 4 5 6 5 5 5 5 5 5 5 6 6 6 6 7 8 9 7 6 5 4 3 3 2 3 3 3 4 6 7 6 6 6
28 27 24 23 22 21 21 22 24 25 25 22 20 19 22 30 32 27 24 24 22 21 20 19 19 18 18 17 15 15 15 12 12 11 8 6 6 5 5 6 5 4 4 4 4 5 5 5 5 4 3 4 4 5 5 4 4 4 5 5 4 5 5 6 6 7 8 9 10 10 9 9 7 5 4 3 3 3 3 5 6 6 6 7 7
28 27 27 24 22 22 21 22 24 24 23 21 19 19 24 31 32 27 24 26 26 24 22 20 18 17 18 17 15 16 16 13 12 11 9 8 7 6 7 9 8 6 4 4 4 5 5 5 5 5 5 5 4 3 4 3 3 4 4 4 5 5 6 6 6 7 8 9 9 9 10 13 13 12 9 6 5 4 4 5 6 6 6 7 8
29 28 28 25 24 23 19 21 23 23 21 20 20 23 26 28 29 29 27 29 30 27 24 22 20 19 18 17 15 17 16 12 11 11 10 10 9 9 10 10 9 7 4 2 2 4 5 5 5 4 5 6 5 5 4 3 3 4 4 4 6 7 7 7 7 6 7 8 8 8 10 11 13 15 13 10 8 6 6 6 6 6 6 7 7
30 32 29 26 26 23 19 21 23 22 19 19 22 25 26 26 28 29 30 32 31 27 25 24 23 22 21 19 17 17 15 11 10 11 10 9 8 11 11 11 10 9 7 3 2 4 5 6 6 3 4 5 5 5 6 5 5 4 4 5 7 7 6 6 7 7 6 6 6 7 7 8 13 16 14 12 10 8 9 8 7 8 6 6 6
29 30 29 29 29 24 21 22 23 22 19 19 22 24 25 25 26 30 34 34 30 27 27 26 25 25 23 21 20 18 15 11 11 12 10 8 8 12 12 12 12 11 8 5 4 7 7 7 8 6 4 5 4 5 6 6 5 5 5 5 6 6 5 5 6 7 7 7 6 6 6 8 15 16 12 13 11 9 10 9 8 9 8 7 6
25 26 29 33 29 24 23 24 23 22 20 20 21 22 23 24 27 32 36 35 32 32 30 27 26 25 23 22 20 17 15 13 12 11 11 9 9 11 12 12 11 8 6 4 5 10 10 8 9 8 6 5 4 5 6 6 6 6 6 5 5 5 5 5 6 7 7 7 7 7 8 11 14 13 13 16 14 10 10 11 11 10 10 9 7
25 24 29 32 26 23 26 25 22 21 21 21 23 22 22 24 29 33 35 35 34 32 30 27 24 25 24 22 18 16 15 15 13 12 11 9 8 9 10 10 9 7 7 7 7 9 12 10 9 8 6 4 3 4 5 4 4 6 6 5 6 6 6 5 6 8 7 7 8 8 10 11 11 10 11 13 15 14 12 11 12 12 11 10 9
25 25 30 28 23 26 27 24 23 21 21 22 23 22 21 24 28 32 33 33 31 30 28 25 23 24 25 22 19 16 14 13 13 13 11 10 10 11 11 11 11 9 8 8 7 7 9 12 11 9 6 3 1 2 5 5 4 5 6 6 6 7 7 6 7 9 9 8 8 9 10 10 9 10 10 10 12 15 15 13 14 14 14 13 11
28 29 29 24 25 28 27 26 25 22 21 21 22 22 22 24 27 30 31 31 30 28 26 24 23 25 25 22 19 16 13 12 12 12 11 12 13 13 13 12 12 13 10 8 7 6 7 12 13 10 8 6 2 2 5 6 5 5 6 6 6 7 7 6 6 8 9 9 9 8 8 10 10 12 13 12 12 15 17 17 17 17 17 16 13
29 26 24 22 24 26 28 28 27 26 24 22 23 24 24 25 28 30 31 30 30 28 25 23 24 24 21 18 17 16 13 12 11 12 13 15 14 13 12 9 10 13 13 10 9 7 7 11 14 11 9 7 4 3 5 6 6 6 6 6 6 7 9 9 10 11 12 12 12 10 8 8 10 14 14 13 16 19 22 22 19 18 19 18 16
25 24 26 27 27 29 31 29 29 30 28 26 26 26 25 26 28 31 32 31 30 28 25 22 23 22 19 15 15 16 14 12 12 13 14 14 13 12 10 8 8 10 13 12 11 9 7 8 13 13 10 7 5 4 4 6 6 6 7 7 7 9 12 15 16 16 16 16 16 15 13 11 11 14 14 14 17 21 23 24 22 21 21 19 18
28 30 32 32 32 34 34 33 33 32 30 29 28 27 26 26 28 32 33 32 29 27 24 23 23 23 21 17 16 16 14 12 12 13 13 12 11 11 8 7 7 6 10 14 13 11 8 6 11 14 11 9 7 5 5 6 7 7 8 9 10 12 14 16 17 16 16 17 17 16 16 15 14 15 16 17 19 20 22 23 21 20 21 20 18
31 33 36 36 35 35 34 34 35 33 31 30 29 28 28 27 29 32 33 31 28 26 24 24 24 24 22 19 17 17 15 12 12 13 13 13 11 10 7 6 5 5 9 13 14 12 9 7 10 13 13 11 9 7 6 6 6 7 8 10 11 13 14 15 15 15 15 15 15 14 15 17 17 17 15 16 18 19 20 21 20 20 19 19 17
31 34 37 37 36 33 31 32 33 33 32 31 31 30 30 30 30 31 33 31 28 27 26 25 24 24 23 20 18 17 15 13 13 13 13 14 12 10 7 5 4 4 6 9 10 9 7 9 11 13 14 12 10 8 6 6 7 9 10 11 11 13 14 14 14 14 15 15 14 14 14 16 17 17 15 15 15 16 17 19 22 24 21 18 18
30 33 35 35 34 32 30 31 31 33 33 34 34 34 32 31 30 32 33 30 28 28 28 26 26 26 25 22 19 18 16 15 14 14 14 13 12 10 8 6 5 4 5 6 8 8 8 10 11 12 14 14 11 8 7 9 11 11 12 12 13 14 15 15 15 14 14 15 16 15 15 15 16 17 16 15 14 13 13 16 20 24 25 24 22
29 31 32 32 32 31 30 31 31 32 33 34 34 34 32 29 30 33 33 31 31 30 30 29 29 29 26 22 19 18 16 15 15 15 15 13 13 12 10 8 6 5 4 6 7 9 9 9 9 11 11 12 11 9 8 10 10 10 10 11 12 14 14 14 13 11 11 13 14 15 16 17 17 17 15 13 13 11 10 13 18 20 23 26 24
29 30 32 33 32 32 31 30 28 30 33 34 33 32 29 28 30 31 32 32 32 31 32 31 30 29 26 22 19 18 17 16 15 15 15 14 15 14 11 9 7 5 4 7 8 7 7 8 10 11 11 11 11 11 11 11 11 11 11 12 14 14 14 13 11 10 12 13 14 15 15 16 17 16 13 11 10 10 9 10 13 18 22 21 19
30 30 33 33 32 33 32 28 26 28 30 32 32 30 28 28 28 29 32 32 30 30 31 30 28 26 23 21 18 18 17 16 15 15 15 16 16 14 12 10 8 5 5 8 8 6 7 10 12 12 12 13 14 14 15 15 15 16 16 16 17 16 16 15 13 13 14 14 15 16 14 14 15 14 12 9 7 7 7 7 9 14 20 18 13
28 29 32 33 33 33 32 28 26 28 29 30 31 30 30 30 29 30 31 31 30 30 29 28 26 24 22 19 17 18 18 16 15 14 15 16 16 14 13 10 8 6 6 8 7 7 10 12 12 13 14 15 17 17 17 17 17 18 17 16 15 15 15 14 14 14 13 13 13 14 16 16 15 14 12 10 7 5 6 7 9 13 18 18 11
25 26 29 31 32 31 29 27 26 29 29 29 31 31 31 30 29 30 31 31 31 30 29 27 25 24 21 19 17 17 17 17 15 13 14 16 16 15 13 10 8 7 7 9 8 9 12 13 13 14 15 17 17 17 17 17 16 16 14 13 12 12 11 11 11 11 11 11 10 11 15 17 17 15 13 11 8 7 8 9 11 13 15 13 7
25 23 24 28 30 27 25 24 25 28 30 29 28 27 26 26 28 30 30 30 29 28 28 26 25 25 22 20 19 17 17 17 15 13 13 15 16 15 13 10 8 7 8 10 10 11 13 13 13 14 14 16 16 15 15 14 14 13 12 11 10 9 8 8 8 7 7 8 9 10 11 13 13 13 10 9 10 9 9 10 10 11 12 10 6
22 21 20 21 22 20 19 20 23 26 28 27 25 23 22 23 26 28 27 25 24 25 26 25 24 24 22 21 20 17 17 16 14 13 12 13 14 14 12 10 9 8 9 10 11 11 12 12 12 13 13 14 14 13 12 12 11 11 10 8 7 6 5 5 5 4 4 5 6 7 9 9 9 11 11 11 12 12 9 8 9 8 8 8 6
17 18 18 18 16 14 15 17 21 25 25 23 22 22 21 21 22 22 21 20 20 22 25 26 25 23 22 22 21 19 17 15 13 12 12 12 13 13 12 10 9 9 10 11 10 10 12 12 11 11 11 12 12 11 10 10 10 9 8 6 5 4 5 6 5 4 3 2 3 5 7 8 9 11 13 12 12 13 11 10 10 9 9 7 7
10 12 15 16 15 14 14 16 18 19 19 19 20 20 19 19 19 18 17 17 19 21 23 26 26 24 23 22 20 18 16 13 12 11 12 12 12 11 11 10 9 9 11 12 10 9 11 11 9 9 9 9 10 10 9 9 9 7 6 5 5 5 6 8 7 6 4 3 1 2 3 6 9 12 13 13 12 11 11 11 11 12 13 11 10
10 11 11 12 14 13 13 15 15 12 11 14 16 14 14 15 15 13 12 13 15 16 17 20 23 22 22 20 17 16 16 15 14 13 13 13 12 11 11 10 9 10 11 13 11 9 10 11 10 9 8 8 9 9 8 7 6 5 5 5 5 6 7 8 9 9 8 6 4 3 4 4 6 8 10 12 12 10 9 10 10 12 14 14 14
16 14 12 13 14 13 12 13 11 7 6 9 12 10 8 9 10 10 9 9 10 11 12 15 17 17 19 18 16 17 18 16 15 15 15 14 12 13 12 11 11 10 11 13 11 9 10 12 12 10 9 9 9 7 7 6 6 6 6 6 6 6 7 8 9 10 10 8 6 7 7 7 6 6 7 9 10 10 9 9 10 12 14 14 13
17 17 15 15 14 12 11 11 10 8 8 9 9 8 5 6 7 9 10 10 10 11 12 12 13 14 17 16 15 17 18 16 16 16 17 15 14 14 12 12 12 11 12 13 12 11 11 13 12 10 11 12 11 9 9 8 8 8 8 9 9 8 8 9 9 9 9 8 7 8 9 10 10 9 9 8 9 10 9 9 11 12 13 11 9
24 21 18 17 18 17 16 17 16 15 14 11 8 8 8 6 5 6 10 11 11 11 11 13 15 15 16 15 14 16 17 17 17 18 18 17 15 15 15 14 14 13 12 14 15 14 13 14 14 13 13 14 13 13 13 12 12 12 11 12 12 11 11 11 10 10 10 10 9 9 9 11 11 12 12 11 11 11 11 11 12 12 12 11 9
32 28 24 22 23 22 21 22 22 21 19 17 14 12 10 9 9 10 10 9 9 9 8 10 12 14 15 16 16 16 17 19 19 19 21 18 15 16 17 16 17 16 14 15 15 15 15 15 17 17 16 16 16 16 16 16 16 16 16 16 15 15 14 13 12 11 12 12 12 11 12 13 13 13 13 13 13 13 12 12 13 13 13 12 11
35 33 31 29 28 27 25 24 23 22 20 19 17 15 13 12 12 12 13 14 12 11 8 6 7 10 12 13 14 15 17 19 18 18 20 19 17 18 18 18 19 18 17 17 17 16 17 17 18 19 19 19 18 18 18 18 19 19 19 19 19 17 16 15 15 15 15 15 14 14 14 14 15 16 15 14 13 12 12 12 13 13 12 11 10
35 35 34 33 32 31 30 28 26 24 24 23 22 20 16 14 15 16 16 16 14 14 14 13 12 11 10 9 10 12 14 14 14 16 19 20 20 21 20 20 20 19 19 19 18 19 19 19 20 21 21 22 22 22 21 21 20 20 20 21 21 20 18 18 19 19 18 18 18 18 17 16 18 19 18 16 14 12 12 12 12 12 11 10 10
34 34 33 32 31 32 31 30 29 27 27 27 27 27 23 19 18 18 20 20 18 18 18 17 16 14 11 10 8 9 11 10 11 14 17 17 18 19 18 18 20 20 20 20 20 21 21 22 23 23 23 24 24 24 23 23 22 21 20 21 21 21 21 22 22 21 21 21 21 21 20 19 20 20 19 17 15 12 12 12 12 12 12 11 11
31 30 30 29 28 29 29 28 28 27 27 26 26 27 27 24 22 22 24 24 23 24 24 23 21 18 16 14 11 9 7 6 6 7 7 8 9 10 11 12 13 14 15 16 18 20 21 23 24 25 25 25 25 25 24 24 24 22 20 20 21 21 22 22 22 21 21 22 23 23 21 19 19 19 19 18 15 12 12 13 13 13 12 12 12
27 26 26 25 24 24 24 25 25 24 24 24 24 24 24 25 25 24 23 22 21 22 24 24 23 22 20 19 17 13 11 10 8 7 5 3 2 2 3 5 7 8 9 10 12 14 16 19 21 24 25 25 26 26 26 25 24 23 22 22 23 23 23 22 21 21 21 20 21 21 18 16 16 17 18 17 14 11 11 13 13 13 12 12 12
21 21 21 20 19 19 19 20 21 22 22 21 20 20 20 21 21 20 19 17 16 17 18 18 18 18 17 17 15 14 13 11 10 8 6 5 2 1 2 3 4 6 8 9 10 11 12 14 16 18 21 23 23 23 23 24 24 24 24 24 24 25 24 22 21 20 19 18 17 16 14 14 16 16 16 15 13 11 10 12 12 12 12 11 11
18 17 16 16 16 15 15 14 15 18 19 18 17 16 15 15 15 14 14 12 10 9 10 11 12 12 12 11 10 10 9 8 7 7 8 7 5 3 1 2 4 6 8 9 10 11 12 13 15 16 17 19 20 20 20 21 22 22 23 23 24 24 22 20 19 19 18 16 15 14 14 16 17 16 15 14 12 11 11 11 10 10 9 9 9
17 15 14 14 13 13 13 11 9 10 10 10 11 10 10 9 7 7 7 7 6 6 5 5 5 5 5 4 3 3 3 2 2 2 4 5 6 6 5 2 1 4 7 10 12 12 12 13 14 16 17 17 18 19 19 20 20 20 20 20 21 21 19 18 17 18 17 16 15 15 15 17 17 16 14 13 12 11 11 10 9 9 8 8 9
16 15 14 13 12 12 12 11 9 8 7 6 5 3 3 3 3 3 3 2 1 1 1 2 1 2 2 3 4 3 4 5 5 6 5 5 5 6 6 6 6 5 6 8 12 14 15 14 14 15 16 17 19 19 20 19 19 18 19 19 18 18 17 17 19 18 17 17 16 15 16 17 16 16 15 13 12 12 11 10 9 9 9 9 9
16 16 14 12 11 11 11 10 9 8 8 7 5 4 4 4 6 6 6 5 5 5 6 7 7 8 8 9 8 7 7 8 9 9 9 8 9 10 10 11 11 11 10 9 10 12 15 17 17 17 16 16 17 19 19 19 18 17 18 18 17 16 17 20 20 19 18 18 16 15 15 17 16 16 15 14 13 12 11 10 10 10 10 10 10
15 15 12 8 7 8 9 8 7 6 5 4 4 3 4 5 6 6 6 6 6 7 9 10 11 12 12 13 13 12 11 11 12 13 13 13 13 13 13 13 13 14 14 14 14 14 15 16 18 19 19 18 18 18 18 19 18 17 17 17 16 17 20 21 20 20 20 19 17 17 18 19 18 17 16 14 13 12 11 11 11 11 11 11 11
14 14 11 6 5 5 6 5 4 4 4 4 3 3 4 5 6 6 7 8 9 10 11 12 14 14 15 16 16 16 16 16 17 18 18 18 18 16 15 15 15 16 16 16 17 17 18 17 17 18 21 21 21 21 20 19 19 17 17 17 17 18 22 21 19 21 23 21 19 19 21 21 20 18 16 15 14 13 12 12 12 12 13 13 13
11 12 9 5 4 4 4 4 5 6 5 5 5 4 4 5 6 7 8 9 9 11 13 14 15 15 16 17 17 18 18 18 18 19 19 20 19 17 16 15 14 14 15 16 17 18 20 21 20 20 21 21 22 25 24 21 20 20 18 18 18 20 23 21 20 23 25 24 21 19 20 22 21 19 17 16 15 13 13 13 14 14 14 15 16
8 9 7 5 6 5 4 4 5 5 5 4 5 4 4 4 6 7 8 9 10 11 12 14 14 15 16 17 18 17 18 18 18 18 19 20 19 19 18 16 14 13 13 14 16 17 20 22 23 22 23 23 23 26 27 24 21 21 21 21 21 22 24 23 22 23 25 26 25 21 19 20 20 19 17 16 14 12 12 13 15 16 16 17 17
7 8 7 6 6 6 5 5 5 4 4 4 4 5 5 6 7 8 9 10 11 11 13 14 15 16 16 17 18 18 18 18 17 17 17 18 18 18 18 17 16 16 15 15 15 15 18 21 22 23 24 26 25 24 25 25 23 22 21 22 23 24 26 26 24 23 22 23 25 21 18 19 19 17 15 14 13 11 11 13 15 17 18 18 18
10 11 9 7 5 5 6 6 5 5 6 7 7 7 7 7 8 10 10 11 12 12 14 15 15 16 17 17 17 17 17 17 16 16 15 14 14 15 16 16 16 15 15 15 15 15 16 18 20 20 20 24 26 25 24 25 26 24 23 24 25 26 28 29 28 25 21 20 24 23 21 20 19 16 14 13 13 12 12 13 15 17 18 18 17
11 11 8 5 4 6 8 6 6 8 9 10 9 8 8 9 11 12 13 13 14 14 15 16 16 16 16 15 15 15 15 15 15 15 14 14 13 13 14 14 14 14 15 15 15 15 15 16 17 16 14 16 21 25 26 27 26 25 25 27 26 27 30 30 30 29 24 22 25 27 24 21 18 15 13 12 12 12 12 13 14 15 15 14 12
8 7 5 2 3 7 8 6 7 10 11 9 9 10 11 12 14 16 17 16 15 14 14 13 12 12 12 12 14 14 15 16 16 16 16 17 17 16 16 16 15 14 15 16 17 18 18 18 17 17 15 13 14 19 25 28 28 28 30 29 25 25 27 28 28 28 25 24 27 28 26 23 20 17 15 14 13 13 12 12 12 11 10 9 9
4 2 2 3 5 7 7 5 7 9 8 8 9 11 13 15 18 21 22 19 14 11 10 8 8 9 11 13 15 16 16 18 20 20 19 18 18 19 20 21 20 17 16 17 18 19 20 21 22 21 19 17 15 16 19 23 26 30 33 31 25 22 21 20 22 24 23 24 27 29 28 26 23 19 16 15 15 14 12 10 9 8 7 7 8
4 4 3 5 6 6 5 5 5 5 7 8 10 12 15 18 20 23 23 19 13 10 10 10 10 11 12 14 16 17 17 18 19 20 19 18 16 16 17 20 22 22 21 20 19 19 19 20 23 25 23 21 19 18 17 18 21 24 27 28 25 23 19 14 12 17 21 24 28 31 30 27 23 19 17 16 15 13 10 8 7 6 5 6 7
6 5 6 6 5 4 4 4 3 3 6 8 9 11 15 18 21 22 20 16 12 12 12 12 13 13 14 15 17 17 17 18 18 19 20 21 20 17 15 15 17 20 22 24 24 23 21 19 21 25 26 24 21 19 18 18 18 19 20 21 22 23 23 19 14 14 18 22 26 28 26 21 17 15 15 15 15 12 10 8 7 5 5 6 8
Wind_Direction
156 156 158 171 167 169 182 183 178 174 176 176 156 147 147 146 151 156 159 161 160 159 157 158 155 152 148 140 136 135 134 139 144 152 150 142 143 146 145 135 136 146 141 135 136 138 139 137 148 172 194 192 200 216 215 214 209 214 220 217 216 212 217 206 181 180 177 166 159 146 125 111 118 143 145 165 194 209 217 210 206 197 200 210 198
160 161 168 173 163 169 182 178 175 175 177 172 155 150 144 143 149 157 162 158 156 159 160 160 156 152 148 142 143 146 149 154 154 158 161 153 148 135 123 120 122 128 128 129 123 119 120 120 124 136 161 175 187 207 209 213 206 200 210 215 208 200 201 194 183 181 181 176 164 153 135 111 95 98 112 124 145 169 186 191 200 196 204 213 196
165 168 168 168 162 169 177 172 171 176 175 166 164 165 148 143 147 154 161 156 156 162 159 154 151 150 150 146 148 151 157 167 168 173 180 178 175 154 123 112 106 102 111 129 122 118 124 122 124 131 142 152 162 185 201 221 222 202 200 201 193 190 188 181 180 180 172 165 162 155 140 123 103 98 108 120 127 139 151 167 192 191 185 193 193
167 168 162 160 161 165 169 164 165 174 173 165 170 163 146 144 146 152 160 158 161 166 155 149 150 150 150 149 151 155 163 173 169 169 173 172 165 148 133 119 108 102 109 128 132 139 133 120 121 134 139 142 149 158 167 177 184 188 191 194 191 187 185 177 169 172 166 162 162 150 142 134 117 114 117 119 123 129 134 153 177 176 163 171 183
167 164 157 154 154 156 160 160 164 172 171 168 170 161 150 150 149 153 160 160 164 164 153 154 158 155 154 158 161 162 168 171 154 143 149 155 146 144 143 136 134 137 148 184 201 153 136 119 112 115 128 128 143 151 146 145 142 158 172 183 190 182 179 175 161 162 166 166 164 148 146 137 128 132 127 118 126 133 135 149 160 159 157 157 167
164 156 150 149 145 144 153 162 166 170 170 171 171 166 160 156 152 155 159 160 163 160 158 163 164 159 160 166 170 171 170 161 145 140 151 158 140 140 139 140 156 166 175 202 174 137 134 121 98 80 93 109 121 130 127 135 140 148 155 161 179 173 168 172 160 168 179 176 164 144 141 136 137 144 135 119 124 134 140 144 144 146 148 145 154
145 141 141 142 137 138 151 160 164 166 166 168 173 173 168 161 158 158 159 161 162 162 166 170 167 163 166 169 172 174 168 152 144 147 157 161 146 146 149 150 162 163 157 167 141 133 134 123 102 88 87 92 109 132 133 143 152 155 153 142 155 159 159 168 153 156 171 174 165 141 130 133 142 150 142 129 127 132 145 143 135 135 134 135 139
127 129 131 130 132 142 150 154 159 163 163 167 175 177 173 167 163 162 161 161 162 164 170 173 171 168 169 171 167 167 164 154 153 155 161 172 158 147 148 143 138 117 105 108 112 131 136 129 116 109 103 92 106 154 168 172 158 153 150 138 142 147 150 161 146 135 139 148 156 152 145 143 142 138 139 140 134 133 142 139 130 129 126 125 124
121 119 119 125 144 153 148 149 156 163 170 173 175 175 173 171 167 166 164 163 164 166 169 173 174 169 166 165 158 156 161 161 164 168 173 175 151 135 136 133 130 123 112 107 102 115 135 141 136 126 135 147 113 161 175 176 158 137 133 130 136 137 142 153 141 130 131 132 138 149 156 156 147 136 139 147 136 133 140 140 132 127 118 110 107
116 118 120 137 161 159 151 154 161 170 179 178 177 174 174 176 174 171 169 167 168 168 167 170 172 168 163 159 153 155 166 172 177 180 171 158 145 145 155 152 147 143 134 131 130 119 130 151 151 134 139 162 170 143 148 146 139 126 121 120 121 120 122 126 122 119 120 119 118 127 145 153 152 150 149 145 135 134 137 137 133 126 118 111 104
121 125 132 152 163 162 158 159 164 172 179 182 181 176 176 180 178 177 176 173 172 170 168 169 169 167 168 165 156 157 171 181 184 180 165 157 155 162 174 170 159 155 149 143 142 139 137 150 155 144 138 155 167 137 129 130 135 134 125 121 121 117 112 108 103 101 102 103 101 101 118 138 148 150 150 144 138 135 132 130 129 123 116 111 104
132 136 147 156 161 166 165 164 170 173 177 182 183 180 179 182 181 182 181 177 176 173 169 171 173 177 185 182 166 163 174 182 182 176 168 166 165 168 177 173 165 166 166 162 152 151 156 151 155 155 147 149 145 121 119 130 137 140 137 133 130 124 119 114 108 104 102 101 97 93 96 108 128 140 142 141 139 135 131 129 128 125 121 113 105
141 146 152 154 161 170 171 173 176 176 179 183 183 184 185 185 186 187 186 183 181 176 172 178 185 191 196 192 178 173 179 180 175 171 170 168 160 159 169 174 176 167 165 174 173 173 185 172 159 159 154 147 137 120 124 138 144 144 140 135 131 127 125 122 117 113 110 107 106 100 97 101 112 126 131 133 134 133 131 131 132 131 127 122 115
147 152 154 156 164 171 174 178 180 180 183 183 183 187 190 191 190 190 191 189 185 181 183 189 194 198 200 197 187 179 181 180 174 171 168 163 158 163 170 173 176 146 144 165 176 182 187 167 155 158 157 151 138 131 136 144 149 142 134 132 129 129 130 129 126 122 119 119 117 111 107 108 113 124 131 133 135 133 133 136 142 140 132 128 129
150 154 156 161 166 169 174 180 182 182 181 182 184 188 193 196 194 193 194 193 190 190 195 199 201 203 204 201 191 184 184 179 175 173 166 160 160 166 171 168 169 160 152 156 162 170 160 137 138 147 154 154 145 141 136 129 132 129 127 129 129 133 137 135 131 131 132 134 130 123 119 115 118 128 136 142 141 137 138 144 147 149 148 145 146
150 155 159 163 166 170 177 180 183 184 183 185 187 191 196 197 196 197 197 198 198 199 203 204 203 204 205 202 195 190 187 182 177 170 164 162 163 163 167 180 195 195 176 153 143 147 141 133 133 138 150 156 154 153 134 123 126 125 125 125 123 131 140 138 135 138 140 141 139 135 130 126 128 134 138 142 142 135 145 159 156 153 154 151 148
151 156 161 167 169 173 179 181 184 188 188 190 192 194 196 195 196 198 200 202 203 204 205 202 200 202 204 202 198 193 189 185 177 167 164 164 161 164 174 193 210 213 181 149 138 139 141 144 143 140 147 152 153 154 140 128 125 122 122 121 119 126 137 141 142 140 135 138 145 145 138 132 135 142 139 134 133 125 131 156 165 168 163 153 147
155 159 165 170 172 177 183 185 188 192 194 196 197 198 196 196 200 202 202 201 201 203 203 199 198 201 202 201 197 191 187 186 179 169 169 167 162 169 183 194 204 212 180 153 148 147 142 144 146 143 141 140 138 137 134 131 126 119 114 109 109 114 121 126 127 120 115 121 133 142 144 139 140 147 145 131 128 123 115 129 156 177 179 166 154
155 161 167 172 178 184 186 185 189 195 198 201 201 201 201 200 203 205 203 201 201 203 200 198 199 200 201 201 195 189 187 185 181 175 174 170 168 177 188 192 197 202 175 158 157 150 138 142 145 143 136 130 126 125 127 127 123 117 112 110 109 109 109 107 104 101 103 108 113 118 129 139 144 148 145 131 122 116 113 115 127 160 178 178 170
151 155 164 171 181 189 187 184 189 193 196 200 202 202 202 201 201 203 203 204 205 204 200 200 201 202 203 200 192 188 187 185 184 184 180 174 175 186 190 189 196 196 169 160 159 143 136 140 142 140 135 129 125 124 124 125 122 119 118 117 115 116 114 111 108 107 109 111 106 106 114 124 132 135 127 118 113 101 106 117 116 136 165 174 173
150 153 161 169 176 183 184 184 189 192 194 199 202 203 204 204 204 204 206 207 206 203 201 201 202 202 201 198 192 187 186 189 190 189 184 179 183 193 191 186 195 191 164 156 154 141 136 136 137 139 138 135 133 132 130 129 128 126 123 121 121 123 121 118 116 116 118 119 111 110 117 121 124 128 123 116 120 118 113 120 121 128 147 158 160
156 163 168 173 175 175 177 180 186 191 195 199 202 205 207 209 211 211 211 209 205 202 201 201 202 202 200 196 194 189 188 192 195 193 188 184 190 197 191 187 194 188 164 155 148 142 140 139 141 144 144 143 142 140 137 136 136 133 130 130 130 127 123 121 122 119 119 122 121 124 131 132 132 133 130 128 133 133 125 125 126 129 137 136 129
160 165 165 166 169 170 171 176 185 191 196 200 204 207 208 212 216 215 212 206 200 200 200 198 200 203 203 200 197 194 193 195 196 194 189 187 195 201 192 185 195 189 166 153 147 147 146 145 149 150 150 152 151 149 144 142 145 145 144 145 141 131 126 130 134 132 126 124 127 138 148 153 153 146 141 143 147 149 146 138 133 136 144 142 135
161 157 147 141 148 162 169 178 187 192 194 196 200 204 204 206 208 208 207 203 198 198 199 198 197 199 202 201 198 194 192 195 197 193 191 195 204 207 194 185 198 194 170 154 151 155 155 154 160 163 162 163 163 162 159 155 158 161 161 163 159 156 153 148 150 157 159 134 116 139 155 161 168 167 161 160 161 162 167 169 160 155 159 160 149
153 141 135 136 146 162 170 178 183 185 188 190 192 195 193 195 197 192 190 192 192 197 202 199 197 197 198 198 196 190 180 183 194 194 197 206 213 212 197 187 196 191 171 162 164 172 169 164 171 178 178 179 179 181 182 178 177 177 180 184 180 178 172 164 168 182 202 220 204 167 174 169 175 183 184 182 180 176 180 187 180 168 167 168 153
119 120 128 138 150 158 160 165 168 168 177 183 183 183 184 190 193 187 180 179 184 198 206 205 206 205 203 205 202 190 178 177 190 202 207 210 214 210 200 193 194 187 172 169 177 191 183 174 181 190 193 202 204 202 203 202 199 200 204 206 196 184 181 178 181 190 201 211 216 217 218 200 187 190 197 198 193 188 189 193 189 178 176 171 159
110 113 114 123 142 153 147 147 153 152 154 158 161 171 184 192 199 205 205 192 183 191 201 209 214 210 208 212 204 191 188 186 191 204 210 211 210 203 200 201 197 189 179 176 187 207 197 184 190 196 201 216 228 228 226 218 215 223 222 213 205 198 201 205 203 202 205 209 213 214 215 222 223 209 205 206 198 193 195 196 189 182 180 176 170
97 99 98 100 115 124 119 118 116 110 114 127 141 150 157 178 200 203 197 189 187 196 201 204 207 201 202 205 193 188 196 197 198 206 209 210 210 201 197 197 192 189 187 184 193 210 203 192 197 204 206 218 234 241 231 217 217 226 220 208 213 227 236 234 228 227 230 233 237 233 225 228 234 227 218 211 204 205 211 209 202 194 190 189 191
86 91 97 95 95 99 104 106 101 99 102 105 118 133 134 134 135 151 168 177 184 192 199 199 195 193 198 203 196 194 200 203 206 209 207 208 207 199 192 188 186 190 195 195 200 211 208 199 202 207 208 216 231 235 228 221 225 233 229 219 226 242 248 244 243 249 254 257 260 258 251 247 241 234 228 222 217 221 223 217 214 214 215 220 231
87 88 92 90 87 91 96 98 97 98 98 95 98 106 109 106 108 120 133 146 159 168 185 199 191 183 188 196 197 198 203 206 209 211 210 207 200 195 192 190 191 194 199 204 210 216 215 209 208 212 212 217 227 231 227 226 234 242 240 235 237 243 242 242 247 254 257 259 260 261 263 260 250 240 235 228 223 225 223 216 214 219 224 231 238
88 86 87 86 84 85 88 89 88 90 92 94 96 97 95 94 100 109 112 112 118 124 125 135 152 164 177 184 189 195 200 205 208 210 210 205 195 195 197 195 198 201 204 210 217 221 220 217 217 219 220 222 228 230 231 234 242 248 247 244 246 248 247 249 255 260 264 263 261 263 265 257 245 243 241 230 224 226 226 222 218 220 224 227 228
90 87 87 87 84 85 86 85 84 84 83 84 88 91 97 100 95 91 94 98 96 91 86 84 96 118 135 146 165 179 182 190 197 199 202 199 194 198 202 202 205 209 211 214 220 226 228 228 227 227 228 231 234 238 241 245 249 252 252 253 254 253 253 256 260 264 267 266 266 268 266 252 241 242 241 232 226 230 234 232 226 224 223 222 221
89 89 88 87 84 84 84 83 83 82 78 79 83 85 89 100 106 97 89 86 85 84 79 74 80 93 99 102 121 146 155 164 171 177 188 195 195 199 206 209 212 216 220 224 226 230 235 237 236 235 236 237 240 244 248 250 251 252 255 256 255 253 255 258 261 263 265 267 269 270 263 251 243 239 234 228 225 229 236 235 230 227 224 219 220
90 90 90 90 87 86 85 84 83 81 81 82 82 82 85 95 104 103 95 93 96 96 92 89 88 89 87 86 90 103 115 117 113 130 160 181 187 196 206 212 217 221 225 230 232 235 239 240 241 242 243 245 248 251 253 254 253 253 256 259 259 258 259 261 261 262 263 266 269 267 258 248 241 234 226 223 223 226 231 230 224 221 222 220 220
89 89 90 92 92 92 92 89 86 86 89 88 83 80 84 87 89 90 93 98 103 101 97 96 95 94 92 90 90 92 93 90 79 67 63 78 123 173 203 221 230 233 234 235 236 239 242 243 244 247 249 251 252 253 253 255 254 256 260 264 265 265 265 265 265 266 264 263 263 259 249 237 231 226 221 220 220 221 225 224 219 218 220 222 223
93 94 95 96 96 97 99 98 96 97 98 96 88 83 82 80 77 77 79 85 95 96 93 94 95 94 94 95 96 98 99 105 109 99 84 80 76 6 339 301 272 260 255 253 251 249 249 249 250 251 252 253 253 253 254 253 253 256 260 264 266 266 265 266 267 265 258 250 246 241 231 222 220 219 215 214 213 214 216 215 214 215 219 224 229
90 92 92 91 89 89 93 101 109 110 107 104 102 98 95 88 82 82 82 85 96 99 93 94 95 92 89 90 95 98 98 106 121 122 114 112 116 116 43 342 307 289 280 273 270 265 260 258 257 256 255 253 252 253 255 255 255 256 258 260 261 260 262 262 258 251 243 233 227 224 217 212 210 208 210 213 212 211 213 213 214 218 223 230 234
83 83 83 82 78 77 80 85 100 109 105 105 113 117 113 98 83 86 93 98 113 122 126 126 114 97 81 66 69 100 122 137 159 164 146 138 141 140 131 133 269 297 295 286 281 278 272 268 264 261 261 259 257 256 257 261 263 261 260 259 257 257 258 250 237 229 225 219 217 216 210 205 203 203 206 214 218 218 218 223 230 232 232 234 235
79 76 76 77 73 72 72 70 72 75 69 72 93 114 101 61 9 357 3 360 354 309 269 252 249 263 280 300 305 280 248 247 257 257 247 234 217 200 196 207 220 244 269 279 282 281 279 275 270 266 265 264 263 262 262 264 266 263 261 259 255 253 245 229 217 214 214 215 218 218 210 206 209 209 208 214 224 229 231 236 241 239 232 229 232
83 76 71 68 63 63 65 62 58 53 47 49 46 15 358 344 324 319 322 321 316 308 302 299 296 291 290 290 290 282 265 256 259 263 262 262 261 255 249 242 238 240 242 246 258 271 278 279 275 270 267 265 266 266 266 264 262 258 255 253 248 238 222 211 210 211 213 217 220 219 217 217 216 210 209 218 228 232 236 240 242 244 240 235 238
99 91 81 72 62 60 60 57 54 48 37 34 25 354 339 327 314 311 313 314 308 296 290 291 291 290 290 289 289 285 277 268 266 268 269 271 275 277 274 269 263 258 253 246 241 248 264 275 275 272 269 266 266 267 268 264 259 255 252 246 236 219 210 212 216 216 217 222 221 217 217 218 213 205 208 219 226 228 233 236 239 244 247 247 248
107 105 98 87 71 64 61 52 39 29 20 10 352 336 335 328 322 325 323 316 309 301 295 293 291 289 290 290 289 288 285 280 278 277 277 277 278 277 276 276 274 272 268 259 249 246 253 262 269 272 271 270 268 266 264 260 255 253 249 241 229 213 209 217 224 217 215 221 223 218 217 216 211 207 211 215 217 219 222 225 231 238 243 247 248
109 112 111 97 83 80 71 46 25 17 18 20 16 14 14 4 349 340 329 318 313 309 303 300 297 296 295 293 291 290 288 287 285 283 281 280 279 276 272 270 274 279 280 275 265 257 256 259 261 264 270 276 272 260 252 250 253 255 249 237 227 218 216 223 227 219 216 219 220 213 211 214 214 212 212 211 209 210 211 214 223 229 233 237 241
103 117 118 103 105 103 77 61 56 49 46 41 34 31 31 21 1 342 326 318 315 310 304 302 299 297 294 292 292 292 291 291 290 285 280 278 277 276 272 269 270 274 280 282 278 270 265 264 264 264 270 276 270 254 243 241 246 253 250 240 230 224 222 226 229 225 223 226 227 217 206 208 211 208 207 207 205 205 207 212 219 224 226 230 234
88 111 109 97 109 110 84 74 73 64 51 35 29 26 19 5 345 328 318 313 310 307 304 303 302 299 296 292 291 291 291 292 293 293 291 289 285 282 278 276 275 275 277 283 284 281 276 273 271 273 276 278 273 259 247 241 241 244 245 240 233 229 227 227 230 230 230 234 236 227 207 201 205 207 209 213 212 210 211 214 220 224 227 231 237
77 93 102 102 103 100 90 77 57 47 45 37 33 27 13 354 333 321 314 310 306 303 301 302 302 300 297 296 298 298 295 292 290 290 292 293 291 289 283 278 275 275 276 281 286 286 282 278 275 276 281 283 277 263 247 237 234 235 239 239 236 232 228 227 229 233 233 230 229 223 210 205 208 211 215 219 219 217 216 216 221 227 232 238 245
84 95 112 126 102 81 79 65 45 51 50 36 22 9 352 335 326 321 316 311 306 301 298 299 300 301 303 306 309 307 301 296 291 286 283 280 277 279 280 278 278 276 271 272 276 279 279 278 275 273 280 290 284 270 256 245 236 234 237 239 237 234 230 227 227 230 229 222 219 218 215 214 216 216 216 217 217 216 216 215 221 230 237 243 246
98 110 121 122 77 75 70 47 39 52 47 21 356 343 333 329 332 334 329 319 308 301 302 307 313 321 326 323 316 311 306 300 293 287 283 280 277 275 273 274 279 282 282 282 280 277 277 280 279 275 277 286 286 275 266 261 257 253 249 242 232 230 233 232 230 229 227 219 215 213 212 213 216 216 218 219 217 215 215 219 229 237 239 236 232
104 114 73 38 64 82 72 43 43 48 28 354 343 341 338 339 345 344 340 333 323 312 315 326 333 335 332 323 318 317 315 310 304 298 294 289 286 282 278 274 270 269 275 283 284 280 280 280 278 276 277 280 283 280 272 265 262 262 262 256 242 231 232 237 235 231 227 218 213 210 210 211 212 212 216 219 217 217 219 226 238 241 232 226 231
115 105 65 47 62 76 69 54 55 40 4 356 360 352 343 344 344 340 338 340 342 340 343 347 347 342 334 326 324 325 323 321 319 318 315 310 301 294 288 283 278 268 261 264 270 275 280 280 275 272 271 272 277 282 282 272 261 258 263 266 257 240 233 238 235 227 224 218 210 207 207 205 202 206 216 219 217 219 221 220 225 235 239 241 252
138 117 88 76 82 90 81 64 47 10 6 18 14 350 339 341 341 338 338 343 350 352 353 353 352 349 341 331 326 324 323 324 325 325 325 323 318 312 303 297 294 284 269 260 257 260 268 275 274 271 268 267 269 274 278 276 268 259 259 264 258 242 233 232 230 223 220 216 210 208 206 202 201 211 220 221 220 222 219 213 218 235 240 240 249